TimeEST,TemperatureF,Dew PointF,Humidity,Sea Level PressureIn,VisibilityMPH,Wind Direction,Wind SpeedMPH,Gust SpeedMPH,PrecipitationIn,Events,Conditions,WindDirDegrees,DateUTC
12:15 AM,50.0,48.2,94,30.18,7.0,WSW,3.5,-,N/A,,Clear,250,2012-01-08 05:15:00
12:35 AM,50.0,50.0,100,30.18,10.0,WSW,3.5,-,N/A,,Clear,250,2012-01-08 05:35:00
12:55 AM,51.8,50.0,94,30.18,10.0,WSW,4.6,-,N/A,,Clear,250,2012-01-08 05:55:00
1:15 AM,51.8,48.2,88,30.18,10.0,SW,3.5,-,N/A,,Clear,230,2012-01-08 06:15:00
1:35 AM,51.8,50.0,94,30.18,10.0,Calm,Calm,-,N/A,,Clear,0,2012-01-08 06:35:00
1:55 AM,50.0,50.0,100,30.18,10.0,Calm,Calm,-,N/A,,Clear,0,2012-01-08 06:55:00
2:15 AM,50.0,48.2,94,30.18,7.0,Calm,Calm,-,N/A,,Clear,0,2012-01-08 07:15:00
2:35 AM,48.2,46.4,93,30.18,0.8,Calm,Calm,-,N/A,,Unknown,0,2012-01-08 07:35:00
2:55 AM,50.0,46.4,87,30.18,10.0,Calm,Calm,-,N/A,,Clear,0,2012-01-08 07:55:00
3:15 AM,50.0,48.2,94,30.18,5.0,Calm,Calm,-,N/A,,Clear,0,2012-01-08 08:15:00
3:35 AM,48.2,46.4,93,30.19,0.2,Calm,Calm,-,N/A,,Unknown,0,2012-01-08 08:35:00
3:55 AM,46.4,46.4,100,30.19,0.2,Calm,Calm,-,N/A,,Unknown,0,2012-01-08 08:55:00
4:15 AM,46.4,46.4,100,30.19,0.2,Calm,Calm,-,N/A,,Unknown,0,2012-01-08 09:15:00
4:35 AM,46.4,46.4,100,30.19,1.2,Calm,Calm,-,N/A,,Unknown,0,2012-01-08 09:35:00
4:55 AM,46.4,44.6,93,30.19,0.2,WSW,3.5,-,N/A,,Unknown,250,2012-01-08 09:55:00
5:15 AM,46.4,46.4,100,30.20,3.0,Calm,Calm,-,N/A,,Clear,0,2012-01-08 10:15:00
5:35 AM,46.4,44.6,93,30.20,0.8,Calm,Calm,-,N/A,,Unknown,0,2012-01-08 10:35:00
5:55 AM,46.4,44.6,93,30.20,1.0,Calm,Calm,-,N/A,,Unknown,0,2012-01-08 10:55:00
6:15 AM,46.4,44.6,93,30.21,0.5,Calm,Calm,-,N/A,,Unknown,0,2012-01-08 11:15:00
6:35 AM,46.4,46.4,100,30.21,0.8,Calm,Calm,-,N/A,,Unknown,0,2012-01-08 11:35:00
6:55 AM,44.6,44.6,100,30.22,0.2,Calm,Calm,-,N/A,,Unknown,0,2012-01-08 11:55:00
7:15 AM,44.6,44.6,100,30.22,0.2,Calm,Calm,-,N/A,,Mostly Cloudy,0,2012-01-08 12:15:00
7:35 AM,44.6,44.6,100,30.23,0.2,Calm,Calm,-,N/A,,Mostly Cloudy,0,2012-01-08 12:35:00
7:55 AM,44.6,44.6,100,30.23,0.2,Calm,Calm,-,N/A,,Unknown,0,2012-01-08 12:55:00
8:15 AM,46.4,46.4,100,30.23,10.0,Calm,Calm,-,N/A,,Clear,0,2012-01-08 13:15:00
8:35 AM,50.0,50.0,100,30.24,10.0,Calm,Calm,-,N/A,,Clear,0,2012-01-08 13:35:00
8:55 AM,55.4,53.6,94,30.25,10.0,Calm,Calm,-,N/A,,Clear,0,2012-01-08 13:55:00
9:15 AM,59.0,55.4,88,30.25,10.0,West,3.5,-,N/A,,Clear,280,2012-01-08 14:15:00
9:35 AM,60.8,55.4,82,30.26,10.0,West,5.8,-,N/A,,Clear,280,2012-01-08 14:35:00
9:55 AM,62.6,55.4,77,30.26,10.0,West,5.8,-,N/A,,Clear,270,2012-01-08 14:55:00
10:15 AM,64.4,55.4,73,30.26,10.0,West,5.8,-,N/A,,Clear,280,2012-01-08 15:15:00
10:35 AM,68.0,53.6,60,30.26,10.0,West,6.9,-,N/A,,Clear,280,2012-01-08 15:35:00
10:55 AM,69.8,53.6,56,30.26,10.0,WSW,5.8,-,N/A,,Clear,250,2012-01-08 15:55:00
11:15 AM,69.8,51.8,53,30.25,10.0,Calm,Calm,-,N/A,,Clear,0,2012-01-08 16:15:00
11:35 AM,71.6,51.8,50,30.24,10.0,West,4.6,-,N/A,,Clear,270,2012-01-08 16:35:00
11:55 AM,71.6,51.8,50,30.23,10.0,South,3.5,-,N/A,,Clear,190,2012-01-08 16:55:00
12:15 PM,73.4,50.0,44,30.23,10.0,WSW,4.6,-,N/A,,Clear,240,2012-01-08 17:15:00
12:35 PM,73.4,50.0,44,30.22,10.0,SW,4.6,-,N/A,,Clear,230,2012-01-08 17:35:00
12:55 PM,73.4,50.0,44,30.22,10.0,WSW,5.8,-,N/A,,Clear,250,2012-01-08 17:55:00
1:15 PM,73.4,48.2,41,30.21,10.0,WSW,6.9,-,N/A,,Clear,240,2012-01-08 18:15:00
1:35 PM,73.4,48.2,41,30.20,10.0,WSW,8.1,-,N/A,,Clear,240,2012-01-08 18:35:00
1:55 PM,73.4,48.2,41,30.20,10.0,Calm,Calm,-,N/A,,Clear,0,2012-01-08 18:55:00
2:15 PM,75.2,46.4,36,30.19,10.0,SSW,5.8,-,N/A,,Clear,200,2012-01-08 19:15:00
2:35 PM,73.4,46.4,38,30.19,10.0,SW,6.9,-,N/A,,Clear,220,2012-01-08 19:35:00
2:55 PM,75.2,50.0,41,30.19,10.0,SSE,8.1,-,N/A,,Clear,160,2012-01-08 19:55:00
3:15 PM,73.4,51.8,47,30.19,10.0,SSE,8.1,-,N/A,,Clear,160,2012-01-08 20:15:00
3:35 PM,73.4,53.6,50,30.19,10.0,SSE,8.1,-,N/A,,Clear,150,2012-01-08 20:35:00
3:55 PM,71.6,51.8,50,30.19,10.0,SSE,10.4,-,N/A,,Clear,150,2012-01-08 20:55:00
4:15 PM,69.8,51.8,53,30.20,10.0,SSE,9.2,-,N/A,,Clear,150,2012-01-08 21:15:00
4:35 PM,69.8,51.8,53,30.19,10.0,SE,6.9,-,N/A,,Clear,140,2012-01-08 21:35:00
4:55 PM,68.0,50.0,52,30.20,10.0,SE,6.9,-,N/A,,Clear,140,2012-01-08 21:55:00
5:15 PM,66.2,50.0,56,30.21,10.0,SSE,5.8,-,N/A,,Clear,150,2012-01-08 22:15:00
5:35 PM,64.4,50.0,59,30.21,10.0,SSE,6.9,-,N/A,,Clear,150,2012-01-08 22:35:00
5:55 PM,62.6,48.2,59,30.22,10.0,SSE,4.6,-,N/A,,Clear,150,2012-01-08 22:55:00
6:15 PM,62.6,50.0,63,30.22,10.0,SE,3.5,-,N/A,,Clear,140,2012-01-08 23:15:00
6:35 PM,60.8,50.0,68,30.23,10.0,Calm,Calm,-,N/A,,Clear,0,2012-01-08 23:35:00
6:55 PM,55.4,48.2,77,30.24,10.0,Calm,Calm,-,N/A,,Clear,0,2012-01-08 23:55:00
7:15 PM,55.4,48.2,77,30.24,10.0,Calm,Calm,-,N/A,,Clear,0,2012-01-09 00:15:00
7:35 PM,59.0,51.8,77,30.24,10.0,South,4.6,-,N/A,,Clear,170,2012-01-09 00:35:00
7:55 PM,60.8,53.6,77,30.23,10.0,SSE,5.8,-,N/A,,Clear,160,2012-01-09 00:55:00
8:35 PM,60.8,53.6,77,30.24,10.0,SSE,3.5,-,N/A,,Clear,160,2012-01-09 01:35:00
8:55 PM,59.0,55.4,88,30.24,10.0,SSE,4.6,-,N/A,,Clear,150,2012-01-09 01:55:00
9:15 PM,59.0,55.4,88,30.24,10.0,South,4.6,-,N/A,,Clear,170,2012-01-09 02:15:00
9:35 PM,59.0,55.4,88,30.24,10.0,SSE,4.6,-,N/A,,Clear,150,2012-01-09 02:35:00
9:55 PM,59.0,55.4,88,30.24,10.0,Calm,Calm,-,N/A,,Clear,0,2012-01-09 02:55:00
10:15 PM,57.2,55.4,94,30.24,10.0,Calm,Calm,-,N/A,,Clear,0,2012-01-09 03:15:00
10:35 PM,59.0,55.4,88,30.24,10.0,SSE,3.5,-,N/A,,Clear,160,2012-01-09 03:35:00
10:55 PM,59.0,55.4,88,30.24,10.0,Calm,Calm,-,N/A,,Clear,0,2012-01-09 03:55:00
11:15 PM,53.6,51.8,94,30.24,1.2,Calm,Calm,-,N/A,,Scattered Clouds,0,2012-01-09 04:15:00
11:35 PM,51.8,51.8,100,30.23,5.0,Calm,Calm,-,N/A,,Clear,0,2012-01-09 04:35:00
11:55 PM,51.8,50.0,94,30.22,0.5,Calm,Calm,-,N/A,,Unknown,0,2012-01-09 04:55:00